Home   Weather   Little Rock   Past weeks

Flag for USA Past Weather in Little Rock, Arkansas, USA — Yesterday and Last 2 Weeks

Now
47 °F

Mostly cloudy.


Feels Like: 44 °F
Forecast: 45 / 48 °F
Wind: 6 mph from Northwest

Location: Adams Field

Current Time: Jan 18, 2017 at 12:06:35 am

Latest Report: Jan 17, 2017 at 10:53 pm


Visibility: 10 mi

Pressure: 30.20 "Hg

Humidity: 83%

Dew Point: 42 °F

Location of Little RockLocation

Past Weather in Little Rock — Graph

°F

Little Rock Temperature Yesterday

Maximum temperature yesterday: 56 °F (at 12:34 am)
Minimum temperature yesterday: 46 °F (at 8:53 am)
Average temperature yesterday: 50 °F

High & Low Weather Summary for the Past Weeks

 TemperatureHumidityPressure
High74 °F (Jan 12, 1:53 pm)100% (Jan 2, 10:06 pm)30.82 "Hg (Jan 2, 10:06 pm)
Low12 °F (Jan 7, 6:53 am)36% (Jan 4, 1:53 pm)29.84 "Hg (Jan 3, 2:17 am)
Average43 °F84%30.23 "Hg
* Reported Jan 2 10:06 pm — Jan 17 10:53 pm, Little Rock, Weather by CustomWeather, © 2017

Note: Actual official high and low records may vary slightly from our data, if they occured in-between our weather recording intervals... More about our weather records

Advertising

Little Rock Weather History for the Previous 24 Hours

Scroll right to see more
 ConditionsComfort  
Time TempWeatherWind HumidityBarometerVisibility
10:53 pm
Tue, Jan 17
47 °FMostly cloudy.6 mph83%30.20 "Hg10 mi
9:53 pm47 °FOvercast.8 mph86%30.18 "Hg10 mi
8:53 pm48 °FOvercast.6 mph80%30.18 "Hg10 mi
7:53 pm49 °FMostly cloudy.9 mph80%30.18 "Hg10 mi
6:53 pm49 °FMostly cloudy.No wind80%30.19 "Hg10 mi
5:53 pm50 °FMostly cloudy.5 mph77%30.17 "Hg10 mi
4:53 pm51 °FOvercast.3 mph74%30.16 "Hg10 mi
3:53 pm53 °FMore clouds than sun.3 mph66%30.16 "Hg10 mi
2:53 pm53 °FMore clouds than sun.7 mph66%30.14 "Hg10 mi
1:53 pm53 °FPartly sunny.9 mph66%30.14 "Hg10 mi
12:53 pm53 °FBroken clouds.8 mph64%30.14 "Hg10 mi
11:53 am53 °FBroken clouds.8 mph64%30.15 "Hg10 mi
10:53 am49 °FBroken clouds.10 mph74%30.16 "Hg10 mi
9:53 am47 °FBroken clouds.9 mph77%30.16 "Hg10 mi
8:53 am46 °FBroken clouds.10 mph83%30.16 "Hg10 mi
7:53 am47 °FPartly sunny.10 mph83%30.13 "Hg10 mi
6:53 am48 °FOvercast.9 mph86%30.10 "Hg10 mi
5:53 am48 °FOvercast.5 mph89%30.07 "Hg10 mi
4:53 am49 °FMostly cloudy.7 mph90%30.08 "Hg10 mi
3:53 am50 °FOvercast.7 mph86%30.09 "Hg10 mi
2:53 am50 °FMostly cloudy.9 mph89%30.05 "Hg10 mi
1:53 am53 °FMostly cloudy.7 mph83%30.06 "Hg10 mi
1:26 am52 °FMostly cloudy.8 mph93%30.05 "Hg10 mi
12:53 am54 °FOvercast.10 mph90%30.03 "Hg10 mi
12:34 am56 °FOvercast.13 mph93%30.03 "Hg10 mi
Weather by CustomWeather, © 2017

See weather overviewHow to use our weather pages